Home   Weather   Sundern (Sauerland)   Past weeks

Flag for Germany Past Weather in Sundern (Sauerland), North Rhine-Westphalia, Germany — Yesterday and Last 2 Weeks

Now
30 °F

Broken clouds.


Feels Like: 25 °F
Forecast: 11 / 29 °F
Wind: 5 mph from Northeast

Location: Dortmund / Wickede

Current Time: Jan 16, 2017 at 11:55:29 am

Latest Report: Jan 16, 2017 at 11:20 am


Visibility: 5 mi

Pressure: 30.30 "Hg

Humidity: 86%

Dew Point: 27 °F

Location of Sundern (Sauerland)Location

Past Weather in Sundern (Sauerland) — Graph

°F

Sundern (Sauerland) Temperature Yesterday

Maximum temperature yesterday: 34 °F (at 1:20 pm)
Minimum temperature yesterday: 30 °F (at 5:20 am)
Average temperature yesterday: 32 °F

High & Low Weather Summary for the Past Weeks

 TemperatureHumidityPressure
High43 °F (Jan 11, 2:20 pm)100% (Jan 8, 6:20 am)30.72 "Hg (Jan 8, 6:20 am)
Low16 °F (Jan 6, 5:20 am)52% (Jan 1, 2:50 pm)29.06 "Hg (Jan 13, 5:20 am)
Average33 °F81%30.06 "Hg
* Reported Jan 1 10:20 am — Jan 16 10:20 am, Sundern (Sauerland), Weather by CustomWeather, © 2017

Note: Actual official high and low records may vary slightly from our data, if they occured in-between our weather recording intervals... More about our weather records

Advertising

Sundern (Sauerland) Weather History for the Previous 24 Hours

Scroll right to see more
 ConditionsComfort  
Time TempWeatherWind HumidityBarometerVisibility
10:20 am
Mon, Jan 16
30 °FPartly sunny.6 mph86%30.30 "Hg4 mi
9:50 am30 °FIce fog.3 mph86%30.27 "Hg2 mi
9:20 am28 °FIce fog.3 mph93%30.27 "Hg2 mi
8:50 am28 °FIce fog.5 mph93%30.27 "Hg2 mi
8:20 am30 °FIce fog.5 mph93%30.24 "Hg2 mi
7:50 am30 °FIce fog.3 mph93%30.24 "Hg1 mi
7:20 am30 °FIce fog.3 mph93%30.24 "Hg1 mi
6:50 am30 °FIce fog.2 mph93%30.21 "Hg0 mi
6:20 am30 °FIce fog.5 mph93%30.21 "Hg0 mi
5:50 am30 °FIce fog.3 mph93%30.21 "Hg1 mi
5:20 am30 °FFog.2 mph93%30.21 "Hg1 mi
10:20 pm
Sun, Jan 15
32 °FLow clouds.2 mph87%30.18 "Hg4 mi
9:50 pm32 °FLow clouds.2 mph87%30.15 "Hg4 mi
9:20 pm32 °FLow clouds.5 mph87%30.15 "Hg4 mi
8:50 pm32 °FLow clouds.3 mph87%30.15 "Hg4 mi
8:20 pm30 °FLow clouds.5 mph93%30.15 "Hg5 mi
7:50 pm32 °FLow clouds.6 mph87%30.15 "Hg4 mi
7:20 pm32 °FPassing clouds.6 mph87%30.15 "Hg4 mi
6:50 pm32 °FPassing clouds.5 mph87%30.15 "HgN/A
6:20 pm32 °FPassing clouds.5 mph87%30.12 "HgN/A
5:50 pm30 °FPassing clouds.3 mph86%30.12 "HgN/A
5:20 pm32 °FPassing clouds.5 mph80%30.12 "HgN/A
4:50 pm32 °FPassing clouds.3 mph87%30.12 "HgN/A
4:20 pm32 °FScattered clouds.5 mph87%30.12 "HgN/A
3:50 pm34 °FScattered clouds.6 mph81%30.09 "HgN/A
3:20 pm34 °FScattered clouds.6 mph81%30.09 "HgN/A
2:50 pm34 °FScattered clouds.6 mph81%30.09 "HgN/A
2:20 pm34 °FScattered clouds.7 mph81%30.09 "HgN/A
1:50 pm34 °FScattered clouds.6 mph81%30.09 "HgN/A
1:20 pm34 °FPartly sunny.7 mph81%30.09 "HgN/A
12:50 pm32 °FScattered clouds.7 mph87%30.09 "HgN/A
12:20 pm32 °FScattered clouds.8 mph87%30.09 "HgN/A
11:50 am32 °FSnow flurries. Broken clouds.8 mph80%30.09 "HgN/A
11:20 am32 °FScattered clouds.8 mph80%30.09 "HgN/A
Weather by CustomWeather, © 2017

See weather overviewHow to use our weather pages